Regional Weather Roundup
Issued by NWS New Orleans/Baton Rouge, LA

Home | Current Version | Previous Version | Graphics & Text | Print | Product List | Glossary Off
Versions: 1 2 3 4 5 6 7 8 9 10 11 12 13 14 15 16 17 18 19 20 21 22 23 24 25 26 27 28 29 30 31 32 33 34 35 36 37 38 39 40 41 42 43 44 45 46 47 48 49 50

500
ASUS44 KLIX 311305
RWRLIX
NEW ORLEANS REGIONAL WEATHER ROUNDUP
NATIONAL WEATHER SERVICE NEW ORLEANS LA
700 AM CST SAT JAN 31 2015

NOTE: "FAIR" INDICATES FEW OR NO CLOUDS BELOW 12,000 FEET WITH NO
      SIGNIFICANT WEATHER AND/OR OBSTRUCTIONS TO VISIBILITY.
      SKY/WX - SKY CONDITION AND SIGNIFICANT WEATHER.
      TMP - AIR TEMPERATURE.     DP    - DEWPOINT TEMPERATURE.
      RH  - RELATIVE HUMIDITY.   PRES  - PRESSURE.
      HI  - HEAT INDEX.          WCI   - WIND CHILL INDEX.

*  THESE STATIONS ARE NOT NWS OR FAA STATIONS AND ARE NOT UNDER
   NWS QUALITY CONTROL.

LAZ038-040-048-061>063-065>067-069-311400-
SOUTHEAST LOUISIANA

CITY           SKY/WX    TMP DP  RH WIND       PRES   REMARKS
N.O. AUDUBON     N/A     42  40  94 MISG        N/A
N.O. INTL ARPT PTCLDY    45  37  73 E6        30.30R
N.O. LAKEFRONT CLEAR     48  37  65 E14       30.31R
N.O. DOWNTOWN* NOT AVBL
SLIDELL        CLEAR     32  28  85 N3        30.31R
BATON ROUGE    CLEAR     36  29  75 NE6       30.31R WCI  31
BOOTHVILLE     CLEAR     51  45  79 NE7       30.28S
BELLE CHASSE   PTCLDY    42  35  76 NE7       30.29R
BOGALUSA*        N/A     32  28  84 N3        30.34R
GALLIANO*      SUNNY     51  43  75 NE5       30.28R
NEW ROADS*       N/A     39  30  68 E7        30.31R WCI  34
GONZALES*        N/A     38  34  88 CALM      30.30R
HAMMOND*       CLEAR     36  30  80 CALM      30.34R
HOUMA*         CLEAR     43  39  87 NE7       30.28R
PORT FOURCHON* SUNNY     55  46  71 E10       30.29R

$$

MSZ070-080>082-311400-
SOUTHERN MISSISSIPPI

CITY           SKY/WX    TMP DP  RH WIND       PRES   REMARKS
MCCOMB         CLEAR     37  27  67 CALM      30.32R
GULFPORT       CLEAR     38  29  70 NE6       30.31R WCI  33
BILOXI         CLEAR     36  31  81 NE5       30.31R WCI  32
PASCAGOULA     CLEAR     31  28  89 N3        30.32R
STENNIS ARPT*  CLEAR     37  27  65 N5        30.32  WCI  34

$$

COASTAL OBSERVATIONS
LAKE AND NEARSHORE STATIONS

STATION/POSITION TIME  TEMP    WIND        PRES    WAVE
                       AIR SEA DIR/SP/G            HT/PER
                 (UTC) (F)     (DEG/KT/KT) (MB)    (FT/S)
PASCAGOULA       1300   41      60/ 11/ 13 1025.8
WAVELAND YACHT   1300   41      60/  8/ 10 1025.5
GRAND ISLE       1300   55 61   80/ 13/ 18 1025.1
SOUTHWEST PASS   1300   50 45   50/ 11/ 12 1024.8
NEW CANAL        1300   48 54   70/ 15/ 17 1026.0
SHELL BEACH      1300   50 55   80/ 13/ 14 1025.6

OFFSHORE STATIONS

STATION/POSITION TIME  TEMP    WIND        PRES    WAVE
                       AIR SEA DIR/SP/G            HT/PER
                 (UTC) (F)     (DEG/KT/KT) (MB)    (FT/S)
64 S DAUPHIN ISL 1205   60 68   90/ 17/ 21 1025.1    4/ 6

$$




USA.gov is the U.S. government's official web portal to all federal, state and local government web resources and services.